Weather History for Casper, WY

Change the Weather History Date:

Friday, November 29, 2013

  Actual Average Record
Temperature  
Mean Temperature 43 °F 27 °F  
Max Temperature 50 °F 37 °F 58 °F (1999)
Min Temperature 35 °F 16 °F -10 °F (1975)
Degree Days  
Heating Degree Days 22 38  
Month to date heating degree days 930 919  
Since 1 July heating degree days 1819 1818  
Cooling Degree Days 0 0  
Month to date cooling degree days 0 0  
Year to date cooling degree days 618 422  
Moisture  
Dew Point 22 °F    
Average Humidity 44    
Maximum Humidity 56    
Minimum Humidity 32    
Precipitation  
Precipitation 0.00 in 0.02 in 0.19 in (1996)
Month to date precipitation 0.24 0.74  
Year to date precipitation 13.94 12.01  
Snow  
Snow 0.00 in 0.40 in - ()
Month to date snowfall 3.6 10.0  
Since 1 July snowfall 24.8 19.2  
Since 1 September snowfall 24.8 19.2  
Snow Depth 0.00 in    
Sea Level Pressure  
Sea Level Pressure 30.11 in    
Wind  
Wind Speed 19 mph (SW)    
Max Wind Speed 30 mph    
Max Gust Speed 36 mph    
Visibility 10 miles    
Events      
T = Trace of Precipitation, MM = Missing Value Source: NWS Daily Summary

Daily Weather History Graph

Daily Weather History Graph

Search for Another Location

Airport:

Trip Planner

Search our weather history database for the weather conditions in past years. The results will help you decide how hot, cold, wet, or windy it might be!

Date:

Astronomy

Nov. 29, 2013 Rise Set
Actual Time 7:15 AM MST 4:33 PM MST
Civil Twilight 6:43 AM MST 5:04 PM MST
Nautical Twilight 6:08 AM MST 5:39 PM MST
Astronomical Twilight 5:34 AM MST 6:14 PM MST
Moon 3:19 AM MST (11/29) 2:23 PM MST (11/29)
Length of Visible Light 10h 21m
Length of Day
9h 18m
Waning Crescent, 13% of the Moon is Illuminated
Nov 29
Waning Crescent
Dec 2
New
Dec 9
First Quarter
Dec 17
Full
Dec 25
Last Quarter

Hourly Weather History & Observations

Time (MST) Temp. Windchill Dew Point Humidity Pressure Visibility Wind Dir Wind Speed Gust Speed Precip Events Conditions
12:53 AM 37.9 °F 27.9 °F 19.0 °F 47% 30.06 in 10.0 mi SSW 19.6 mph - N/A   Clear
1:53 AM 39.0 °F 29.0 °F 19.9 °F 46% 30.05 in 10.0 mi SSW 20.7 mph - N/A   Clear
2:53 AM 37.0 °F 27.0 °F 21.0 °F 52% 30.07 in 10.0 mi SW 18.4 mph - N/A   Clear
3:53 AM 37.9 °F 28.5 °F 21.9 °F 53% 30.08 in 10.0 mi SW 17.3 mph - N/A   Clear
4:53 AM 36.0 °F 26.7 °F 21.9 °F 57% 30.11 in 10.0 mi SW 15.0 mph - N/A   Clear
5:53 AM 36.0 °F 26.0 °F 21.9 °F 57% 30.11 in 10.0 mi SW 17.3 mph - N/A   Clear
6:53 AM 36.0 °F 26.7 °F 21.9 °F 57% 30.15 in 10.0 mi SSW 15.0 mph - N/A   Clear
7:53 AM 36.0 °F 26.0 °F 21.9 °F 57% 30.16 in 10.0 mi SW 17.3 mph - N/A   Clear
8:53 AM 39.0 °F 29.3 °F 21.9 °F 50% 30.17 in 10.0 mi SW 19.6 mph 29.9 mph N/A   Clear
9:53 AM 42.1 °F 32.3 °F 21.9 °F 45% 30.17 in 10.0 mi SSW 24.2 mph 27.6 mph N/A   Clear
10:53 AM 45.0 °F 35.8 °F 23.0 °F 42% 30.14 in 10.0 mi SSW 26.5 mph 33.4 mph N/A   Clear
11:53 AM 46.9 °F - 23.0 °F 39% 30.11 in 10.0 mi SSW 25.3 mph 36.8 mph N/A   Clear
12:53 PM 48.9 °F - 23.0 °F 36% 30.08 in 10.0 mi SSW 21.9 mph 27.6 mph N/A   Clear
1:53 PM 50.0 °F - 21.0 °F 32% 30.06 in 10.0 mi SW 24.2 mph 29.9 mph N/A   Clear
2:53 PM 48.9 °F - 21.9 °F 35% 30.06 in 10.0 mi SW 19.6 mph - N/A   Clear
3:53 PM 46.9 °F - 23.0 °F 39% 30.07 in 10.0 mi SSW 19.6 mph 25.3 mph N/A   Clear
4:53 PM 41.0 °F 34.3 °F 23.0 °F 49% 30.12 in 10.0 mi SW 11.5 mph - N/A   Clear
5:53 PM 41.0 °F 34.3 °F 24.1 °F 51% 30.12 in 10.0 mi SSW 11.5 mph - N/A   Clear
6:53 PM 41.0 °F 31.9 °F 24.1 °F 51% 30.12 in 10.0 mi SSW 19.6 mph - N/A   Clear
7:53 PM 39.9 °F 30.8 °F 24.1 °F 53% 30.12 in 10.0 mi SW 18.4 mph - N/A   Clear
8:53 PM 39.9 °F 31.4 °F 23.0 °F 51% 30.12 in 10.0 mi SW 16.1 mph - N/A   Clear
9:53 PM 37.9 °F 28.9 °F 23.0 °F 55% 30.13 in 10.0 mi SW 16.1 mph - N/A   Clear
10:53 PM 37.9 °F 29.6 °F 23.0 °F 55% 30.12 in 10.0 mi SSW 13.8 mph - N/A   Clear
11:53 PM 37.9 °F 28.2 °F 23.0 °F 55% 30.12 in 10.0 mi SW 18.4 mph - N/A   Clear